Location: Allos
(44.2333°N, 6.6333°E)
Time: 12:53:07
(UTC+00:00)

Cosmos 1238 Rocket - Pass Details

Date: 01 December 2020
Orbit: 375 x 1024 km, 83.0° (Epoch: 25 January)

Event Time Altitude Azimuth Distance (km) Brightness Sun altitude
Rises 17:15:58 0° 4° (N) 2,657 6.1 -13.9°
Reaches altitude 10° 17:18:11 10° 17° (NNE) 1,860 5.2 -14.3°
Maximum altitude 17:21:46 28° 78° (ENE) 1,187 3.9 -14.9°
Drops below altitude 10° 17:25:56 10° 137° (SE) 2,199 5.6 -15.7°
Sets 17:28:46 0° 148° (SSE) 3,241 6.6 -16.1°
